Location: Igon
(43.1667°N, 0.2333°W)
Time: 09:00:34
(UTC+00:00)

CZ-4C R/B - Pass Details

Date: 29 November 2020
Orbit: 620 x 1382 km, 63.4° (Epoch: 23 January)

Event Time Altitude Azimuth Distance (km) Brightness Sun altitude
Exits shadow 05:11:09 26° 219° (SW) 1,393 3.1 -21.3°
Maximum altitude 05:14:00 84° 307° (NW) 777 1.9 -20.8°
Drops below altitude 10° 05:19:49 10° 36° (NE) 2,558 5.0 -19.8°
Sets 05:22:36 0° 37° (NE) 3,629 5.8 -19.3°
